Home > Weather > Nome > Past weeks

Flag for USA Past Weather in Nome, Alaska, USA — Yesterday and Last 2 Weeks

Now
44 °F

Scattered clouds.


Feels Like: 43 °F
Forecast: 50 / 57 °F
Wind: 3 mph from Northeast

Location: Nome Airport

Current Time: Jul 27, 2016 at 7:26:41 AM

Latest Report: Jul 27, 2016 at 6:53 AM


Visibility: 10 mi

Pressure: 29.73 "Hg

Humidity: 100%

Dew Point: 44 °F

Location of NomeLocation

Past Weather in Nome — Graph

°F

Nome Temperature Yesterday

Maximum temperature yesterday: 57 °F (at 1:53 PM)
Minimum temperature yesterday: 47 °F (at 5:53 AM)
Average temperature yesterday: 53 °F

High & Low Weather Summary for the Past Weeks

 TemperatureHumidityPressure
High66 °F (Jul 24, 8:53 PM)100% (Jul 12, 5:53 AM)30.29 "Hg (Jul 12, 5:53 AM)
Low42 °F (Jul 13, 4:00 AM)45% (Jul 24, 8:53 PM)29.67 "Hg (Jul 23, 2:53 PM)
Average52 °F90%29.97 "Hg
* Reported Jul 12 5:53 AM — Jul 27 5:53 AM, Nome, Weather by CustomWeather, © 2016

Note: Actual official high and low records may vary slightly from our data, if they occured in-between our weather recording intervals... More about our weather records

Advertising

Nome Weather History for the Previous 24 Hours

Scroll right to see more
 ConditionsComfort  
Time TempWeatherWind HumidityBarometerVisibility
5:53 AM
Wed, Jul 27
46 °FPassing clouds.No wind96%29.72 "Hg10 mi
4:53 AM48 °FPartly cloudy.3 mph93%29.72 "Hg10 mi
3:53 AM48 °FPartly cloudy.8 mph93%29.72 "Hg10 mi
2:53 AM50 °FPassing clouds.6 mph89%29.72 "Hg10 mi
1:53 AM51 °FBroken clouds.8 mph92%29.71 "Hg10 mi
12:53 AM52 °FBroken clouds.10 mph89%29.70 "Hg10 mi
11:53 PM
Tue, Jul 26
53 °FSunny.13 mph86%29.70 "Hg10 mi
10:53 PM53 °FBroken clouds.12 mph89%29.69 "Hg10 mi
9:53 PM54 °FBroken clouds.16 mph86%29.68 "Hg10 mi
8:53 PM54 °FBroken clouds.16 mph86%29.67 "Hg10 mi
7:53 PM56 °FBroken clouds.16 mph81%29.67 "Hg10 mi
6:53 PM56 °FBroken clouds.17 mph81%29.67 "Hg10 mi
5:53 PM56 °FBroken clouds.15 mph81%29.68 "Hg10 mi
4:53 PM56 °FBroken clouds.15 mph81%29.70 "Hg10 mi
3:53 PM56 °FBroken clouds.16 mph77%29.70 "Hg10 mi
2:53 PM56 °FSunny.10 mph84%29.70 "Hg10 mi
1:53 PM57 °FBroken clouds.9 mph74%29.70 "Hg10 mi
12:53 PM56 °FPartly sunny.9 mph81%29.70 "Hg10 mi
11:53 AM54 °FBroken clouds.6 mph90%29.71 "Hg10 mi
10:53 AM55 °FBroken clouds.No wind90%29.71 "Hg10 mi
9:53 AM54 °FPartly sunny.3 mph90%29.72 "Hg10 mi
8:53 AM53 °FPartly sunny.3 mph89%29.72 "Hg10 mi
7:53 AM51 °FPartly sunny.No wind89%29.72 "Hg10 mi
Weather by CustomWeather, © 2016

See weather overviewHow to use our weather pages